Location: Bun Machan
(52.1403°N, 7.3744°W)
Time: 18:07:33
(UTC+00:00)

Meteor 1-14 Rocket - Pass Details

Date: 14 July 2020
Orbit: 835 x 918 km, 81.3° (Epoch: 13 August)

Event Time Altitude Azimuth Distance (km) Brightness Sun altitude
Exits shadow 02:05:06 19° 191° (S) 1,895 5.4 -13.7°
Maximum altitude 02:09:11 90° 120° (ESE) 860 4.2 -13.4°
Drops below altitude 10° 02:14:55 10° 13° (NNE) 2,520 8.1 -13.1°
Sets 02:17:23 0° 14° (NNE) 3,474 9.2 -12.9°
